Starlink 6328

operational
NORAD ID: 56523 Int'l Des: 2023-065 Owner: SPXS Country: US Constellation: starlink
LEOCIRCULAR

关于 Starlink 6328

正在加载描述...

实时位置

正在加载3D地球...

即将过境

高度历史

Altitude vs Time

uPlot chart will show altitude changes over time

两行轨道根数

1 56523U 23065W 25310.60303635 .00001155 00000-0 10055-3 0 9990
2 56523 43.0026 158.7827 0001300 265.7200 94.3494 15.02530187138111
Epoch: Nov 6, 2025 • Age: 10 hours

当前状态

高度 558.7 km
速度 7.59 km/s
星下点 17.72°N, 127.61°E
发射日期 May 14, 2023
运行时间 2.4 years
类型 internet

技术详情

分类 Payload
质量 305.00 kg
干质量 290.00 kg
总质量 305.00 kg
长度 0.20 m
直径 2.80 m
跨度 9.00 m
形状 Box + pan
制造商 SPXS
平台类型 Starlink
阶段状态 In Orbit
所有者/国家 SPXS/US

大型星座

Loading constellations...